Vorticity
nan nan nan nan nan nan nan nan nan nan nan nan nan nan nan nan nan nan nan nan nan nan nan nan nan nan nan nan nan nan nan nan nan
nan 14 10 8 4 8 11 10 9 8 7 9 9 7 8 9 9 9 9 8 7 9 10 10 11 12 11 12 12 11 10 9 nan
nan 12 9 7 9 7 10 9 8 10 10 10 8 8 10 11 9 9 10 11 9 9 9 8 11 10 10 10 12 9 8 9 nan
nan 12 12 8 7 10 10 9 9 9 9 9 8 9 11 10 10 10 10 10 10 9 10 13 13 12 10 8 9 9 9 10 nan
nan 18 11 11 11 10 8 7 9 9 8 9 8 8 10 9 9 10 10 10 9 8 8 13 14 10 10 10 10 10 8 8 nan
nan 18 10 10 9 11 9 7 8 8 9 8 9 10 9 10 9 8 9 9 8 8 8 9 10 9 9 10 9 9 9 10 nan
nan 14 11 7 8 8 9 9 8 7 9 10 9 8 8 9 10 9 9 9 9 8 10 9 8 9 9 10 8 8 9 8 nan
nan 9 8 8 9 9 9 9 8 9 8 9 9 8 6 8 8 9 9 9 10 11 10 9 10 10 9 9 8 10 10 9 nan
nan 13 8 10 10 8 8 8 8 9 8 9 9 9 6 6 9 10 8 9 11 10 9 10 9 9 10 7 10 15 9 7 nan
nan 17 20 11 10 8 7 9 9 10 8 8 9 9 9 8 9 10 11 11 10 10 9 7 9 10 10 9 13 13 9 5 nan
nan 12 15 14 10 10 10 9 8 10 11 9 9 9 9 10 10 10 10 9 8 8 9 9 9 10 9 9 12 13 11 5 nan
nan 12 12 17 14 10 11 10 11 10 10 9 9 9 10 9 10 10 9 8 8 7 7 9 10 10 10 8 11 13 10 6 nan
nan 8 15 20 13 11 10 11 11 9 9 9 8 9 11 11 10 10 9 9 8 8 8 10 10 10 11 9 9 13 12 6 nan
nan 3 13 19 16 12 8 10 10 8 9 10 9 9 12 12 12 10 9 8 9 9 9 10 10 10 10 10 9 12 10 6 nan
nan 6 17 17 11 10 11 11 8 10 8 10 12 12 10 10 9 9 11 9 8 10 10 8 8 8 8 10 12 11 8 8 nan
nan 15 13 12 14 10 10 11 9 7 11 11 11 10 10 10 9 10 11 9 7 9 9 8 9 8 8 9 10 13 14 8 nan
nan 10 13 22 18 9 11 11 10 10 10 11 9 8 9 9 9 8 8 8 9 9 8 8 9 9 9 9 9 9 11 11 nan
nan 9 8 12 11 16 15 11 12 14 13 10 9 9 8 7 9 10 8 10 11 11 10 10 8 9 10 9 10 14 11 8 nan
nan 5 8 11 13 14 13 14 12 13 14 9 8 7 8 9 10 9 9 8 1 11 24 14 7 10 8 7 15 17 12 9 nan
nan nan nan nan nan nan nan nan nan nan nan nan nan nan nan nan nan nan nan nan nan nan nan nan nan nan nan nan nan nan nan nan nan
CAPE
7 164 571 746 676 588 698 756 595 738 683 561 555 475 458 393 223 60 7 0 11 8 80 10 1 89 128 518 860 855 791 198 38
12 84 566 841 357 122 666 716 838 902 894 803 631 538 364 205 98 94 64 0 4 92 140 320 650 552 693 788 735 774 52 0 0
2 37 580 654 409 392 664 762 815 937 771 962 739 331 265 193 87 110 99 25 63 164 139 330 477 638 675 303 145 27 0 0 0
1 0 548 546 437 509 528 770 965 1042 953 849 420 190 82 63 80 47 56 178 85 32 155 236 345 404 167 4 0 0 0 0 0
5 14 519 573 600 546 469 680 791 1152 981 710 379 135 158 118 86 128 340 117 43 332 290 418 425 178 1 0 0 0 0 0 0
1 75 573 727 602 634 638 738 743 786 996 793 418 108 152 64 120 317 186 18 328 418 263 514 209 11 0 0 0 0 0 0 0
79 527 811 783 722 733 798 794 886 743 924 721 307 225 245 185 153 70 140 151 213 437 454 273 17 0 0 0 0 0 0 0 0
180 599 701 700 768 770 756 1011 1079 1065 1033 610 307 162 134 173 30 0 51 378 637 767 298 131 11 0 0 0 0 0 0 0 0
232 335 599 643 757 751 718 1080 1157 975 1086 586 158 52 164 14 0 0 2 197 676 271 94 1 0 0 0 0 0 0 0 0 0
84 249 529 601 616 657 646 678 929 747 998 602 167 28 4 10 1 227 721 704 352 153 11 0 0 0 0 0 0 0 0 0 0
28 20 230 450 544 623 691 707 830 771 841 584 121 87 68 63 146 975 882 463 176 10 0 0 0 0 0 0 0 0 0 0 0
113 101 17 349 621 645 861 837 782 852 685 407 157 96 139 154 1053 900 721 376 71 11 0 0 0 0 0 0 0 0 0 0 0
8 85 96 497 754 844 1138 985 1056 852 768 653 585 633 458 712 1116 867 737 352 91 24 0 0 0 0 0 0 0 0 0 0 0
52 32 59 797 971 1214 1207 1303 1153 1012 849 1247 1106 1331 1545 1448 1170 881 680 272 84 30 0 0 0 0 0 0 0 0 0 0 0
69 44 386 953 1229 1256 1115 1429 1353 1224 1185 1225 1552 1794 1855 1480 1118 877 453 285 142 44 0 0 0 0 0 0 0 0 0 0 0
166 414 563 936 1283 1171 1299 1369 1570 1681 1408 1870 1910 1869 1762 1357 1000 695 446 262 144 11 0 0 0 0 0 0 0 0 0 0 0
493 450 411 570 978 1022 1574 1463 1493 1689 1878 2290 2194 1954 1733 1271 937 634 504 346 160 25 0 0 0 0 0 0 0 0 0 0 0
337 402 536 708 251 379 1465 1730 1624 1733 2256 2341 2549 2159 1927 1422 1091 726 679 460 205 64 0 0 0 0 0 0 0 0 0 0 0
18 0 11 91 259 545 574 1516 1789 2269 2672 2560 2470 2249 1990 1592 1253 1043 930 532 62 0 1 0 0 0 0 0 0 0 0 0 0
21 0 0 0 70 429 1171 864 2102 2250 3074 3033 2572 2325 2024 1576 1463 1242 1009 618 291 53 0 0 0 0 0 0 0 0 0 0 0